User: anonymous   Login
Location: Unspecified
(0.0000°N, 0.0000°E)
Time: 07:53:48
(UTC+00:00)
Language:

PLEIADES HR1 - Orbit

View from above orbital plane
View from above orbital plane
View from above satellite
View from above satellite

Ground track
Ground track

The orbit data is extracted from the following two-line orbital elements,

1 38012U 11076F   16211.16110062  .00000034  00000-0  17189-4 0  9994
2 38012  98.1979 284.9317 0001175  83.9038 276.2306 14.58561787245771
Epoch (UTC): 29 July 2016 03:51:59
Eccentricity: 0.0001175
inclination: 98.1979°
perigee height: 697 km
apogee height: 698 km
right ascension of ascending node: 284.9317°
argument of perigee: 83.9038°
revolutions per day: 14.58561787
mean anomaly at epoch: 276.2306°
orbit number at epoch: 24577

The dashed part of the orbit path shows where the satellite is in the earth's shadow,  

DLR